sat.trackr.live / text

‹ back to catalog

STARLINK-35877

NORAD 67049 · 2025-294V

PAYLOAD ACTIVE UNKNOWN

§ Identity

Operator
Country
US
Launch date
2025-12-11
Launch site
AFETR
Launch vehicle
Mass (kg)
RCS (m²)

Purposes: comms

External: N2YO · Heavens-Above · Gunter

§ Orbital elements

Epoch: 2026-09-20T14:09:22.697856Z

Period
94.27 min
Inclination
43.0030°
Eccentricity
0.0001455
Mean motion
15.27591246 rev/d
Perigee alt
482.0 km
Apogee alt
484.0 km
Semi-major
6,861.2 km
B*
6.4373e-4
RAAN
17.6434°
Arg perigee
268.6132°
Mean anomaly
91.4553°
Rev number
4,460

§ Raw data

STARLINK-358771 67049U 25294V   26263.58984604  .00017500  00000+0  64373-3 0  99992 67049  43.0030  17.6434 0001455 268.6132  91.4553 15.27591246 44609

JSON: /api/v1/satellites/67049 · /tle

For live sub-satellite position, see the globe view (requires WebGL).

§ Visibility from observer

Set your observer location to see the next 7 days of passes ≥ 10°. The values pass through the URL so the page stays shareable.

No JS? Fill the form by hand. The geolocation button needs JavaScript.